Precipitable_Water
0.36 0.36 0.34 0.36 0.41 0.43 0.45 0.43 0.43 0.44 0.45 0.49 0.54 0.58 0.60 0.59 0.58 0.56 0.55 0.52 0.50 0.48 0.47 0.44 0.41 0.36 0.34
0.34 0.34 0.34 0.36 0.37 0.40 0.40 0.43 0.44 0.44 0.45 0.50 0.55 0.57 0.60 0.60 0.59 0.57 0.54 0.51 0.48 0.48 0.45 0.40 0.38 0.32 0.29
0.31 0.36 0.37 0.37 0.36 0.39 0.39 0.38 0.41 0.45 0.46 0.50 0.55 0.57 0.61 0.61 0.59 0.56 0.54 0.52 0.49 0.47 0.42 0.38 0.32 0.27 0.24
0.32 0.34 0.36 0.38 0.37 0.36 0.34 0.37 0.38 0.42 0.46 0.50 0.55 0.57 0.61 0.62 0.59 0.56 0.54 0.52 0.49 0.45 0.40 0.35 0.28 0.23 0.22
0.32 0.34 0.36 0.36 0.34 0.36 0.35 0.37 0.39 0.41 0.42 0.46 0.51 0.57 0.61 0.62 0.60 0.57 0.55 0.52 0.48 0.42 0.37 0.31 0.23 0.21 0.21
0.33 0.33 0.35 0.38 0.37 0.36 0.36 0.36 0.36 0.42 0.41 0.43 0.51 0.56 0.63 0.61 0.60 0.58 0.55 0.52 0.46 0.40 0.34 0.25 0.20 0.19 0.19
0.34 0.36 0.36 0.40 0.40 0.38 0.38 0.39 0.39 0.42 0.41 0.43 0.52 0.60 0.63 0.59 0.59 0.58 0.55 0.51 0.45 0.38 0.29 0.21 0.19 0.18 0.18
0.40 0.41 0.41 0.44 0.42 0.41 0.42 0.43 0.44 0.43 0.45 0.44 0.60 0.61 0.60 0.58 0.57 0.57 0.54 0.49 0.42 0.34 0.25 0.20 0.18 0.18 0.17
0.46 0.45 0.45 0.46 0.45 0.45 0.43 0.42 0.41 0.43 0.46 0.53 0.64 0.59 0.57 0.56 0.57 0.55 0.53 0.46 0.39 0.29 0.22 0.19 0.18 0.18 0.16
0.43 0.45 0.46 0.47 0.48 0.49 0.48 0.44 0.44 0.44 0.55 0.65 0.61 0.58 0.53 0.55 0.55 0.53 0.48 0.42 0.34 0.24 0.19 0.17 0.18 0.17 0.15
0.44 0.44 0.47 0.48 0.50 0.51 0.52 0.52 0.51 0.61 0.68 0.64 0.63 0.57 0.56 0.53 0.53 0.48 0.42 0.37 0.28 0.20 0.17 0.16 0.17 0.17 0.15
0.46 0.46 0.48 0.51 0.53 0.55 0.58 0.67 0.77 0.68 0.67 0.67 0.62 0.59 0.54 0.52 0.47 0.44 0.40 0.32 0.23 0.18 0.16 0.15 0.15 0.15 0.16
0.48 0.50 0.53 0.58 0.59 0.63 0.71 0.76 0.72 0.66 0.66 0.68 0.63 0.58 0.57 0.52 0.46 0.40 0.31 0.27 0.21 0.17 0.15 0.14 0.15 0.15 0.13
0.56 0.61 0.67 0.67 0.66 0.73 0.73 0.68 0.66 0.66 0.70 0.69 0.62 0.59 0.54 0.50 0.44 0.36 0.30 0.20 0.19 0.16 0.15 0.15 0.15 0.15 0.15
0.68 0.72 0.73 0.71 0.72 0.73 0.70 0.72 0.67 0.66 0.66 0.63 0.59 0.57 0.53 0.48 0.39 0.33 0.26 0.20 0.18 0.15 0.14 0.13 0.14 0.15 0.15
0.80 0.80 0.76 0.77 0.76 0.74 0.73 0.69 0.68 0.67 0.62 0.58 0.55 0.51 0.47 0.42 0.39 0.30 0.23 0.18 0.17 0.16 0.15 0.13 0.12 0.14 0.16
0.83 0.79 0.80 0.78 0.75 0.74 0.71 0.70 0.67 0.63 0.59 0.57 0.54 0.49 0.42 0.36 0.33 0.29 0.19 0.17 0.16 0.14 0.14 0.14 0.13 0.13 0.16
Wind_Speed
18 19 18 17 16 16 16 16 16 17 17 18 20 21 22 24 26 28 31 32 33 35 37 40 41 42 43
19 19 19 18 18 17 17 17 17 18 18 19 21 22 23 24 27 29 31 32 34 36 38 40 41 42 44
18 20 19 19 19 18 18 18 18 18 19 20 21 22 24 25 27 30 31 32 34 36 39 40 41 43 46
20 20 20 20 20 19 19 19 19 20 20 21 22 23 24 26 28 30 31 32 34 37 39 39 41 44 46
21 21 21 21 21 20 20 20 20 21 21 22 23 25 26 27 28 30 31 33 34 37 38 40 42 44 47
23 23 22 22 22 21 20 20 21 22 22 23 24 26 27 27 29 30 31 33 34 36 37 40 42 44 47
24 24 23 23 22 21 22 21 22 21 22 23 25 27 26 28 29 30 31 32 34 35 37 39 42 44 47
25 24 24 23 23 22 22 21 21 22 22 23 27 26 26 28 28 29 30 32 34 35 37 39 41 44 46
25 24 23 23 23 22 22 21 22 23 23 25 26 25 26 27 28 29 30 32 33 35 37 39 41 44 46
25 23 23 23 23 24 23 22 22 23 25 26 25 25 26 26 27 29 30 31 33 34 36 38 41 44 46
26 24 24 24 24 24 23 23 22 25 25 26 24 24 25 26 27 28 29 31 31 34 36 38 40 43 44
26 25 25 25 24 23 23 23 26 26 25 24 23 24 24 26 27 28 29 30 31 33 35 37 40 41 43
28 26 26 25 24 24 24 26 28 24 24 23 22 23 24 25 26 28 29 29 30 34 35 37 39 41 42
29 27 27 27 27 27 28 27 25 24 22 21 22 23 24 25 27 27 28 29 31 33 35 37 38 40 41
29 28 28 28 28 29 28 26 24 22 21 21 22 23 24 25 26 27 27 29 31 33 34 36 38 39 41
29 29 28 27 27 26 25 22 21 19 20 21 22 23 24 25 26 26 27 29 31 33 34 35 37 39 40
31 29 27 27 25 23 21 20 19 19 20 21 22 23 23 25 26 26 27 29 31 33 33 35 36 39 40
Wind_Direction
232 231 236 243 248 259 266 274 282 289 295 302 309 315 318 322 326 329 331 333 333 335 336 336 337 337 337
232 235 240 245 250 259 265 275 281 286 292 299 306 311 315 319 324 327 329 330 332 334 335 335 336 336 337
237 238 243 247 252 259 266 273 280 284 291 297 302 308 312 317 321 325 327 329 330 333 335 335 335 336 336
237 239 244 249 254 259 266 271 278 283 289 295 300 305 310 315 318 322 325 326 329 332 334 334 335 336 337
240 242 247 250 253 259 265 271 277 281 286 292 298 303 308 312 316 320 323 326 328 331 333 333 335 336 337
243 245 249 251 255 258 263 269 279 279 285 291 296 303 305 310 314 317 320 324 327 330 331 333 335 336 337
243 246 249 252 254 258 263 269 279 282 283 290 297 303 303 309 312 315 319 323 326 328 330 333 335 337 338
246 250 252 252 254 259 264 270 279 281 282 292 299 299 304 308 311 314 317 321 325 328 330 333 335 337 338
246 248 250 251 253 258 265 268 278 281 280 294 298 298 303 307 311 314 316 320 324 327 330 333 335 337 339
244 247 249 252 255 260 265 267 277 282 284 292 294 296 303 306 311 314 316 320 324 327 330 332 335 337 340
242 246 250 253 258 261 264 268 276 286 286 289 289 293 301 307 310 313 316 320 323 327 329 331 334 337 339
242 247 250 254 257 260 265 270 284 286 283 286 288 293 300 306 310 313 316 319 322 326 328 331 334 337 339
242 246 250 254 258 263 270 278 283 280 283 282 287 294 300 305 310 313 316 318 321 325 327 331 334 336 338
243 246 252 257 258 265 274 278 277 276 280 280 287 295 301 305 309 312 315 317 321 325 327 330 333 336 338
242 249 255 257 263 268 271 273 272 273 273 280 289 296 301 305 309 311 314 317 321 324 327 329 332 335 337
245 250 254 258 264 267 268 264 266 267 274 283 290 295 301 306 309 310 313 317 320 323 326 328 330 334 335
244 247 253 260 261 262 257 258 262 269 279 284 291 296 300 305 308 309 313 317 320 323 325 327 329 332 333